Landrienne Radar, Quebec

6:23 AM EST on December 07, 2016 (GMT -0500)
Val-d'Or

Weather History for CYVO - February, 2013

Change the Weather History Date:

Thursday, February 28, 2013

  Actual Average Record
Temperature  
Mean Temperature 22 °F -  
Max Temperature 25 °F 20 °F 44 °F (2004)
Min Temperature 17 °F 0 °F -31 °F (2009)
Degree Days  
Heating Degree Days 43    
Moisture  
Dew Point 22 °F    
Average Humidity 88    
Maximum Humidity 100    
Minimum Humidity 76    
Precipitation  
Precipitation 0.01 in - - ()
Sea Level Pressure  
Sea Level Pressure 29.80 in    
Wind  
Wind Speed 13 mph ()    
Max Wind Speed 22 mph    
Max Gust Speed 30 mph    
Visibility 6.3 miles    
Events Snow    
Averages and records for this station are not official NWS values.
T = Trace of Precipitation, MM = Missing Value Source: Averaged Metar Reports

Daily Weather History Graph

Daily Weather History Graph

Search for Another Location

Airport or City:

Trip Planner

Search our weather history database for the weather conditions in past years. The results will help you decide how hot, cold, wet, or windy it might be!

Date:

Astronomy

Feb. 28, 2013 Rise Set
Actual Time 6:53 AM EST 5:54 PM EST
Civil Twilight 6:22 AM EST 6:25 PM EST
Nautical Twilight 5:46 AM EST 7:01 PM EST
Astronomical Twilight 5:10 AM EST 7:37 PM EST
Moon 9:39 PM EST (2/28) 7:44 AM EST (2/28)
Length of Visible Light 12h 03m
Length of Day
11h 00m
Waning Gibbous, 91% of the Moon is Illuminated
Feb 28
Waning Gibbous
Mar 4
Last Quarter
Mar 11
New
Mar 19
First Quarter
Mar 27
Full

Hourly Weather History & Observations

Time (EST) Temp. Windchill Dew Point Humidity Pressure Visibility Wind Dir Wind Speed Gust Speed Precip Events Conditions
12:00 AM 28.4 °F 19.1 °F 24.8 °F 86% 29.81 in 6.0 mi NNE 10.4 mph - N/A Snow Light Snow
12:01 AM 28.4 °F 18.5 °F 24.8 °F 86% 29.81 in 5.0 mi NNE 11.5 mph - N/A Snow Light Snow
12:03 AM 28.4 °F 18.5 °F 24.8 °F 86% 29.81 in 4.0 mi NE 11.5 mph - N/A Snow Light Snow
12:10 AM 28.4 °F 18.5 °F 24.8 °F 86% 29.81 in 2.5 mi NE 11.5 mph - N/A Snow Light Snow
1:00 AM 27 °F - 24 °F 85% 29.76 in - NNE 10.4 mph - -  
1:00 AM 26.6 °F 16.2 °F 24.8 °F 93% 29.79 in 1.8 mi NNE 11.5 mph - N/A Snow Light Snow
1:20 AM 26.6 °F 16.2 °F 24.8 °F 93% 29.79 in 1.5 mi NNE 11.5 mph - N/A Snow Light Snow
1:26 AM 26.6 °F 15.7 °F 24.8 °F 93% 29.79 in 2.0 mi NNE 12.7 mph - N/A Snow Light Snow
1:32 AM 26.6 °F 15.7 °F 24.8 °F 93% 29.78 in 1.8 mi NNE 12.7 mph - N/A Snow Light Snow
1:42 AM 26.6 °F 16.8 °F 24.8 °F 93% 29.78 in 2.0 mi NNE 10.4 mph 17.3 mph N/A Snow Light Snow
1:45 AM 26.6 °F 15.7 °F 24.8 °F 93% 29.78 in 3.0 mi NNE 12.7 mph - N/A Snow Light Snow
2:00 AM 26.6 °F 16.2 °F 24.8 °F 93% 29.78 in 4.0 mi NNE 11.5 mph - N/A Snow Light Snow
2:28 AM 26.6 °F 15.2 °F 24.8 °F 93% 29.77 in 6.0 mi NNE 13.8 mph 19.6 mph N/A Snow Light Snow
2:38 AM 26.6 °F 15.7 °F 24.8 °F 93% 29.77 in 4.0 mi NNE 12.7 mph 18.4 mph N/A Snow Light Snow
2:42 AM 26.6 °F 16.2 °F 24.8 °F 93% 29.77 in 4.0 mi NNE 11.5 mph 18.4 mph N/A Snow Light Snow
3:00 AM 26.6 °F 15.2 °F 24.8 °F 93% 29.76 in 9.0 mi NNE 13.8 mph - N/A Snow Light Snow
4:00 AM 26 °F - 24 °F 86% 29.72 in - NNE 13.8 mph - -  
4:00 AM 26.6 °F 14.3 °F 24.8 °F 93% 29.75 in 9.0 mi NNE 16.1 mph - N/A Snow Light Snow
6:00 AM 24.8 °F 12.4 °F 24.8 °F 100% 29.76 in 12.0 mi NNE 15.0 mph - N/A Snow Light Freezing Drizzle
6:32 AM 24.8 °F 12.9 °F 23.0 °F 93% 29.76 in 12.0 mi NNE 13.8 mph - N/A Snow Light Snow
7:00 AM 25 °F - 22 °F 83% 29.73 in - North 15.0 mph - -  
7:00 AM 24.8 °F 11.5 °F 23.0 °F 93% 29.76 in 15.0 mi North 17.3 mph - N/A Snow Light Snow
8:00 AM 24.8 °F 11.5 °F 21.2 °F 86% 29.76 in 12.0 mi North 17.3 mph 24.2 mph N/A Snow Light Snow
9:00 AM 24.8 °F 11.1 °F 21.2 °F 86% 29.76 in 10.0 mi North 18.4 mph - N/A Snow Light Snow
10:00 AM 25 °F - 20 °F 76% 29.73 in - North 16.1 mph - -  
10:00 AM 24.8 °F 11.5 °F 21.2 °F 86% 29.75 in 15.0 mi NNE 17.3 mph 24.2 mph N/A Snow Light Snow
11:00 AM 24.8 °F 11.9 °F 21.2 °F 86% 29.76 in 10.0 mi North 16.1 mph 24.2 mph N/A Snow Light Snow
11:19 AM 24.8 °F 11.9 °F 21.2 °F 86% 29.76 in 3.0 mi NNE 16.1 mph 21.9 mph N/A Snow Light Snow
11:39 AM 24.8 °F 12.4 °F 21.2 °F 86% 29.77 in 1.2 mi NNE 15.0 mph 21.9 mph N/A Snow Light Snow
1:00 PM 24 °F - 21 °F 82% 29.74 in - North 18.4 mph - -  
1:00 PM 24.8 °F 10.7 °F 21.2 °F 86% 29.77 in 1.5 mi North 19.6 mph - N/A Snow Light Snow
2:00 PM 24.8 °F 10.7 °F 21.2 °F 86% 29.77 in 2.0 mi North 19.6 mph 25.3 mph N/A Snow Light Snow
2:50 PM 24.8 °F 11.5 °F 21.2 °F 86% 29.79 in 10.0 mi North 17.3 mph - N/A Snow Light Snow
3:00 PM 24.8 °F 11.5 °F 21.2 °F 86% 29.79 in 12.0 mi North 17.3 mph - N/A Snow Light Snow
4:00 PM 25 °F - 20 °F 76% 29.78 in - North 17.3 mph - -  
4:00 PM 24.8 °F 11.1 °F 21.2 °F 86% 29.81 in 10.0 mi North 18.4 mph - N/A Snow Light Snow
5:00 PM 24.8 °F 11.9 °F 21.2 °F 86% 29.83 in 15.0 mi North 16.1 mph 23.0 mph N/A Snow Light Snow
6:00 PM 24.8 °F 11.9 °F 23.0 °F 93% 29.86 in 5.0 mi North 16.1 mph - N/A Snow Light Snow
7:00 PM 25 °F - 22 °F 85% 29.85 in - NNW 15.0 mph - -  
7:00 PM 24.8 °F 11.5 °F 23.0 °F 93% 29.87 in 3.0 mi North 17.3 mph - N/A Snow Light Snow
8:00 PM 24.8 °F 11.1 °F 23.0 °F 93% 29.89 in 5.0 mi North 18.4 mph - N/A Snow Light Snow
9:00 PM 23.0 °F 9.6 °F 21.2 °F 93% 29.91 in 3.0 mi NNW 16.1 mph 26.5 mph N/A Snow Light Snow
10:00 PM 20 °F - 17 °F 83% 29.90 in - NNW 18.4 mph - -  
10:00 PM 21.2 °F 5.2 °F 17.6 °F 86% 29.92 in 4.0 mi NNW 21.9 mph - N/A Snow Light Snow
10:30 PM 19.4 °F 4.5 °F 15.8 °F 86% 29.93 in 3.0 mi NNW 17.3 mph 29.9 mph N/A Snow Light Snow
10:35 PM 19.4 °F 5.0 °F 15.8 °F 86% 29.93 in 7.0 mi NNW 16.1 mph 26.5 mph N/A Snow Light Snow
11:00 PM 17.6 °F 1.3 °F 15.8 °F 93% 29.94 in 8.0 mi NNW 19.6 mph 25.3 mph N/A Snow Light Snow